Location: Zagreb
(45.8000°N, 16.0000°E)
Time: 09:29:11
(UTC+01:00)

Courier 1B - Visible Passes

Search period start: 23 January 2020 00:00
Search period end: 02 February 2020 00:00
Orbit: 962 x 1209 km, 28.3° (Epoch: 22 January)

Date Brightness Start Highest point End Pass type
(mag) Time Alt. Az. Time Alt. Az. Time Alt. Az.
23 Jan 9.5 04:25:19 18° S 04:26:46 19° S 04:31:49 10° SE visible
23 Jan 9.7 06:14:33 10° SW 06:19:50 20° S 06:25:10 10° SE visible
24 Jan 9.9 03:34:58 15° SSE 03:34:58 15° SSE 03:37:42 10° SE visible
24 Jan 9.6 05:21:52 13° SW 05:26:12 20° S 05:31:36 10° SE visible
25 Jan 9.4 04:31:29 19° S 04:32:35 20° S 04:37:53 10° SE visible
25 Jan 9.8 06:20:57 10° SW 06:25:37 17° SSW 06:30:21 10° SSE visible
26 Jan 9.7 03:41:06 17° SSE 03:41:06 17° SSE 03:44:01 10° SE visible
26 Jan 9.6 05:27:59 12° SW 05:32:01 19° S 05:37:02 10° SSE visible
27 Jan 9.4 04:37:35 19° SSW 04:38:24 19° S 04:43:32 10° SE visible
27 Jan 9.8 06:28:09 10° SW 06:31:22 13° SSW 06:34:38 10° S visible
28 Jan 9.7 03:47:11 17° SSE 03:47:11 17° SSE 03:49:54 10° SE visible
28 Jan 9.7 05:34:04 11° SW 05:37:49 15° SSW 05:41:52 10° SSE visible
29 Jan 9.5 04:43:41 17° SSW 04:44:14 17° S 04:48:43 10° SSE visible
30 Jan 9.8 03:53:18 15° SSE 03:53:18 15° SSE 03:55:22 10° SSE visible
30 Jan 9.8 05:42:16 10° SSW 05:43:34 10° SSW 05:44:52 10° S visible
31 Jan 9.7 04:49:50 13° SSW 04:50:02 13° SSW 04:52:59 10° S visible
01 Feb 9.9 03:59:30 11° SSE 03:59:30 11° SSE 04:00:11 10° SSE visible
